Hourly Data Report for February 20, 2003

TORONTO CITY
ONTARIO

43°40'00.000" N
79°24'00.000" W
112.50 m
6158355
71508
XTO

Download Data

Hourly Data (February 2003)
Hourly Data Report for February 20, 2003
TIME
LST
Temp Definition
°C
Dew Point Definition
°C
Rel Hum Definition
%
Precip. Amount Definition
mm

Wind Dir Definition
10's deg

Wind Spd Definition
km/h
Visibility Definition
km
Stn Press Definition
kPa
Hmdx Definition


Wind Chill Definition


Weather Definition


00:00 -2.6 -7.2 71     0 LegendMM 100.79     LegendNANA
01:00
02:00 -3.4 -7.5 73     0 LegendMM 100.90     LegendNANA
03:00 -4.0 -7.7 75     0 LegendMM 100.95     LegendNANA
04:00 -4.4 -7.9 77     0 LegendMM 100.95     LegendNANA
05:00 -4.6 -7.8 78     0 LegendMM 101.00     LegendNANA
06:00 -4.4 -7.4 80     0 LegendMM 101.03     LegendNANA
07:00
08:00 -3.8 -7.0 78     0 LegendMM 101.06     LegendNANA
09:00 -1.8 -6.8 69     0 LegendMM 101.08     LegendNANA
10:00 -0.8 -5.9 68     0 LegendMM 101.04     LegendNANA
11:00 1.0 -4.9 65     0 LegendMM 101.02     LegendNANA
12:00 2.4 -3.6 65     0 LegendMM 100.96     LegendNANA
13:00 4.6 -3.0 58     0 LegendMM 100.85     LegendNANA
14:00 4.4 -2.1 63     0 LegendMM 100.72     LegendNANA
15:00 4.0 -1.9 65     0 LegendMM 100.65     LegendNANA
16:00 3.7 -1.3 70     0 LegendMM 100.59     LegendNANA
17:00 3.7 -1.9 67     0 LegendMM 100.51     LegendNANA
18:00 3.3 -2.1 68     0 LegendMM 100.47     LegendNANA
19:00
20:00 3.0 -3.9 60     0 LegendMM 100.46     LegendNANA
21:00 3.2 -4.4 57     0 LegendMM 100.45     LegendNANA
22:00 3.2 -4.6 57     0 LegendMM 100.40     LegendNANA
23:00 3.2 -4.8 56     0 LegendMM 100.35     LegendNANA

Notes on Data Quality.

Legend

  • E = Estimated
  • M = Missing
  • NA = Not Available*
  • [empty] = Indicates an unobserved value
Date modified: